Regional Weather Roundup
Issued by NWS Charleston, SC

Current Version | Previous Version | Graphics & Text | Print | Product List | Glossary On
Versions: 1 2 3 4 5 6 7 8 9 10 11 12 13 14 15 16 17 18 19 20 21 22 23 24 25 26 27 28 29 30 31 32 33 34 35 36 37 38 39 40 41 42 43 44 45 46 47 48 49 50
000 ASUS42 KCHS 030527 RWRCHS REGIONAL WEATHER ROUNDUP NATIONAL WEATHER SERVICE CHARLESTON SC 100 AM EDT FRI JUL 03 2015 NOTE: "FAIR" INDICATES FEW OR NO CLOUDS BELOW 12,000 FEET WITH NO SIGNIFICANT WEATHER AND/OR OBSTRUCTIONS TO VISIBILITY. NOT ALL STATIONS ARE QUALITY CONTROLLED BY THE NATIONAL WEATHER SERVICE. USE DATA WITH CAUTION...ESPECIALLY DEWPOINT OBSERVATIONS. SCZ027-030-031-034>040-042>050-030600- ...SOUTHEAST SOUTH CAROLINA... CITY SKY/WX TMP DP RH WIND PRES REMARKS N CHARLESTON CLOUDY 71 69 93 W7 29.98F WATERFRONT PAR N/A 72 71 97 W6 29.96F MOUNT PLEASANT LGT RAIN 72 72 100 W3 29.97F JOHNS ISLAND FAIR 72 72 100 CALM 29.98F PINOPOLIS NOT AVBL MONCKS CORNER MOCLDY 72 68 88 SW5 29.97F SUMMERVILLE FAIR 70 70 100 CALM 29.99F BEAUFORT MCAS CLOUDY 72 71 97 SW7 30.00F BEAUFORT ARPT FAIR 72 72 100 SW3 30.00F HILTON HEAD IS CLOUDY 73 72 94 S7 30.03S WALTERBORO CLOUDY 68 68 100 SW3 29.99F ALLENDALE FAIR 72 70 94 CALM 29.99F ...SOUTHERN MIDLANDS AND PEE DEE... CITY SKY/WX TMP DP RH WIND PRES REMARKS GEORGETOWN NOT AVBL KINGSTREE NOT AVBL ORANGEBURG CLOUDY 70 68 93 SW6 29.98F BARNWELL FAIR 72 70 94 SW3 29.99F AIKEN NOT AVBL MANNING FAIR 70 70 100 SW3 29.96F COLUMBIA CLOUDY 72 67 84 SW6 29.96F SUMTER CLOUDY 71 68 92 SW7 29.96F FLORENCE MOCLDY 71 69 93 SW8 29.95F MYRTLE BEACH CLOUDY 72 66 83 W10 29.95F N MYRTLE BEACH CLOUDY 72 69 90 W7 29.93F $$ GAZ063-065-086>088-099>101-113>116-118-119-134>141-150-030600- ...SOUTHEAST GEORGIA... CITY SKY/WX TMP DP RH WIND PRES REMARKS SAVANNAH ARPT MOCLDY 72 69 90 SW10 30.03F HUNTER AAF MOCLDY 73 72 97 SW6 30.02R FORT STEWART MOCLDY 72 70 93 S3 30.02F STATESBORO NOT AVBL SYLVANIA MOCLDY 73 73 100 SW5 30.02S CLAXTON CLOUDY 72 70 94 SW5 30.03F ...CSRA...CENTRAL AND FAR SOUTHEAST GEORGIA... CITY SKY/WX TMP DP RH WIND PRES REMARKS THOMSON CLOUDY 73 73 100 S6 30.03F AUGUSTA-BUSH CLOUDY 71 69 93 SW3 29.98F AUGUSTA-DANIEL CLOUDY 71 68 90 SW5 29.99F SWAINSBORO FAIR N/A N/A N/A CALM 30.03S VIDALIA CLOUDY 72 70 94 SW9 30.04S EASTMAN FAIR 73 73 100 SW3 30.05S HAZLEHURST FAIR 73 73 100 S6 30.03F ALMA PTCLDY 71 70 96 S5 30.05S WAYCROSS CLEAR 74 73 99 SW6 30.05F JESUP FAIR 73 72 94 CALM 30.05F BAXLEY FAIR 72 72 100 CALM 30.04F BRUNSWICK PTCLDY 72 70 94 S3 30.07F SAINT SIMONS PTCLDY 73 70 90 SW3 30.07F $$ SCZ027-028-034-036>038-045-046-048>050-GAZ119-141-030600- ...LAKE AND SUPPLEMENTAL COASTAL OBSERVATIONS... STATION/POSITION TIME TEMP WIND PRES WAVE SWELL AIR SEA DIR/SP/G HT/PER HT/PER/DIR (UTC) (F) (DEG/KT/KT) (MB) (FT/S) (FT/S/D) UPR LAKE MARION NOT AVBL WINYAH BAY 0400 70 260/ 6 1014.0 LAKE MURRAY 0400 73 220/ 10/ 14 1014.9S ACE BASIN NERRS NOT AVBL FORT PULASKI 0500 74 84 230/ 7/ 12 1017.3S SAPELO ISLAND 0500 74 200/ 7 1018.0S $$ ANZ835-935-AMZ111-154-330-350-352-354-370-450-454-472-030600- ...C-MAN AND BUOY OBSERVATIONS... STATION/POSITION TIME TEMP WIND PRES WAVE SWELL AIR SEA DIR/SP/G HT/PER HT/PER/DIR (UTC) (F) (DEG/KT/KT) (MB) (FT/S) (FT/S/D) BUOY 41004 0450 76 81 250/ 12/ 14 1014.8F 5/ 6 3/ 6 BUOY 41008 0450 77 79 240/ 14/ 16 1018.1S 2/ 4 2/120/ 9 FOLLY BEACH CMAN 0500 72 260/ 5/ 7 1015.1F CAPERS NEARSHORE 0408 74 280/ 10/ 14 1016.1S FRIPP NEARSHORE 0400 77 300/ 12/ 14 1016.0R STATION/POSITION TIME TEMP WIND PRES WAVE SWELL AIR SEA DIR/SP/G HT/PER HT/PER/DIR (UTC) (F) (DEG/KT/KT) (MB) (FT/S) (FT/S/D) 5E ST. MARYS GA 0421 77 N/A 2/ 9 FRYING PAN BUOY 0450 77 80 250/ 16/ 19 1013.8F 6/ 7 3/200/ 7 BUOY 41025 0450 82 83 230/ 25/ 33 1012.5F 8/ 7 2/190/15 CAPE LOOKOUT NC 0500 78 270/ 19/ 22 1013.2R BUOY 41002 0450 82 80 220/ 17/ 21 1018.4F 6/ 7 3/250/ 7 BUOY 41010 0420 80 84 310/ 2/ 2 1020.4F ST AUGUSTINE FL 0500 73 73 220/ 8/ 10 1019.7F $$

USA.gov is the U.S. government's official web portal to all federal, state and local government web resources and services.